Back to catalog

PROPCUBE 3

AliveScienceLEO
NORAD 40973·PAYLOAD·🇺🇸 United States

Launched Oct 8, 2015 from Vandenberg Space Force Base

Loading…

Next Passes (next 24 hours)

TLE

FreshSource: Space-Track

Epoch: Sep 14, 2026, 04:56 UTC

1 40973U 15058K   26257.20616298  .00001683  00000-0  14470-3 0  9995
2 40973  64.7685 334.2811 0131215  26.1438 334.6222 14.94761111128109

Track PROPCUBE 3 in real time with AllMySat

Download on the App Store